[[{"header":{"parameterUnit":"m.s-1","parameterCategory":1,"la1":30.2991,"la2":30.254,"lo1":-89.0895,"lo2":-89.0444,"dy":0.0017,"dx":0.0017,"nx":28,"ny":28,"refTime":"2025-11-24T09:00:00:Z","depth":0,"parameterNumber":2,"parameterNumberName":"U-component_of_WINDS"},"data":[0,0,0,0,0,0,0,0,0,0,0,0,0,0,0,0,0,0,0,0,0,0,0,0,0,0,0,0,0,0,0,0,0,0,0,0,0,0,0,0,0,0,0,0,0,0,0,0,0,0,0,0,0,0,0,0,0,0,-1.4308,-1.4309,0,-1.435,-1.435,-1.4351,-1.4373,-1.4373,-1.4373,-1.4373,-1.4416,-1.4417,-1.4418,0,0,0,0,0,0,0,0,0,0,0,0,0,-1.425,-1.4251,-1.4308,-1.4309,-1.4309,-1.4349,-1.435,-1.4351,-1.4373,-1.4373,-1.4373,-1.4373,-1.4415,-1.4417,-1.4418,0,0,0,0,0,0,0,0,0,0,0,0,0,-1.4281,-1.4251,-1.4308,-1.4325,-1.4327,-1.4349,-1.435,-1.4351,-1.4373,-1.4373,-1.4373,-1.4373,-1.4415,-1.4416,-1.4418,-1.4427,0,0,-1.4423,-1.4424,0,0,0,0,0,0,0,0,-1.428,-1.4283,-1.4322,-1.4324,-1.4326,-1.4356,-1.4345,-1.4376,-1.4373,-1.4355,-1.4373,-1.4373,-1.4396,-1.4399,-1.4407,-1.4429,-1.4431,-1.4423,-1.4424,-1.4425,-1.4425,0,0,0,0,0,0,0,-1.4277,-1.4282,-1.4325,-1.4323,-1.4325,-1.4331,-1.4336,-1.4351,-1.4375,-1.4357,-1.4359,-1.4363,-1.4397,-1.4405,-1.4408,-1.4431,-1.4423,-1.4425,-1.4426,-1.4426,-1.4462,-1.4462,0,0,0,0,0,0,-1.4272,-1.428,-1.4323,-1.4326,-1.4303,-1.4332,-1.4337,-1.4346,-1.4375,-1.4379,-1.4363,-1.4364,-1.4402,-1.4406,-1.4409,-1.4421,-1.4425,-1.4426,-1.4427,-1.4462,-1.4462,-1.4462,0,0,0,0,0,0,-1.4271,-1.4276,-1.4322,-1.4303,-1.431,-1.4333,-1.4343,-1.4347,-1.4355,-1.4379,-1.4384,-1.4367,-1.4402,-1.4407,-1.4422,-1.4423,-1.4427,-1.4429,-1.4462,-1.4462,-1.4462,-1.4445,0,0,0,0,0,0,-1.4269,-1.4275,-1.4279,-1.4303,-1.4311,-1.4334,-1.4343,-1.4348,-1.4358,-1.436,-1.4384,-1.4388,-1.4403,-1.442,-1.4424,-1.4425,-1.443,-1.4462,-1.4462,-1.4462,-1.4446,-1.4444,-1.4443,0,0,0,0,0,-1.4267,-1.4273,-1.4279,-1.4284,-1.4315,-1.4334,-1.4338,-1.4354,-1.4358,-1.4362,-1.4377,-1.4387,-1.4422,-1.4421,-1.4426,-1.4428,-1.4462,-1.4462,-1.4462,-1.4446,-1.4445,-1.4443,0,0,0,0,0,0,-1.4248,-1.4276,-1.4283,-1.4297,-1.4313,-1.4337,-1.4343,-1.4352,-1.4368,-1.4369,-1.4389,-1.4394,-1.4407,-1.4419,-1.4417,-1.4438,-1.4443,-1.4444,-1.4429,-1.4428,-1.4427,-1.4424,-1.4431,0,0,0,0,0,-1.4245,-1.4258,-1.4282,-1.4292,-1.4299,-1.4319,-1.4328,-1.4339,-1.4357,-1.4363,-1.438,-1.4396,-1.4411,-1.442,-1.4435,-1.4447,-1.4453,-1.4451,-1.445,-1.4449,-1.445,-1.4457,-1.4456,-1.4462,-1.4462,-1.4462,0,0,-1.424,-1.4257,-1.4264,-1.4288,-1.4302,-1.4314,-1.4325,-1.4338,-1.4347,-1.4365,-1.4381,-1.4393,-1.4413,-1.4426,-1.4433,-1.4437,-1.4449,-1.4449,-1.4448,-1.4449,-1.4456,-1.4456,-1.4455,-1.4462,-1.4462,-1.4462,0,0,-1.4237,-1.4251,-1.4261,-1.4274,-1.4294,-1.4307,-1.4309,-1.4333,-1.4341,-1.4357,-1.4371,-1.4382,-1.4407,-1.4421,-1.4431,-1.4432,-1.4442,-1.4436,-1.443,-1.4437,-1.4436,-1.4436,-1.4436,-1.4436,-1.4437,-1.4436,-1.4436,0,-1.4229,-1.4248,-1.4264,-1.4276,-1.4286,-1.4303,-1.4313,-1.4325,-1.4349,-1.4355,-1.4359,-1.439,-1.4405,-1.4421,-1.4422,-1.4429,-1.4432,-1.4433,-1.4435,-1.4435,-1.4435,-1.4435,-1.4435,-1.4436,-1.4436,-1.4436,-1.4436,0,-1.4236,-1.4248,-1.4254,-1.4276,-1.4287,-1.4297,-1.4316,-1.4325,-1.4335,-1.4348,-1.4363,-1.4381,-1.44,-1.4405,-1.4415,-1.4423,-1.4424,-1.4431,-1.4437,-1.4433,-1.4433,-1.4434,-1.4434,-1.4435,-1.4435,-1.4435,0,0,-1.4222,-1.4253,-1.4255,-1.4265,-1.4288,-1.4298,-1.4309,-1.4327,-1.4334,-1.435,-1.436,-1.438,-1.4387,-1.4398,-1.441,-1.4416,-1.4415,-1.4422,-1.4423,-1.442,-1.4424,-1.4419,-1.4419,-1.4422,-1.4422,-1.4422,-1.4423,0,-1.4222,-1.4243,-1.4258,-1.4273,-1.4285,-1.4301,-1.4311,-1.4326,-1.4338,-1.435,-1.4364,-1.4378,-1.4386,-1.4392,-1.4399,-1.4414,-1.4416,-1.4414,-1.4431,-1.4432,-1.4426,-1.4419,-1.4414,-1.4413,-1.4423,-1.4423,-1.4423,0,-1.4225,-1.424,-1.4256,-1.4277,-1.4283,-1.4291,-1.4308,-1.432,-1.4337,-1.4346,-1.4358,-1.437,-1.4383,-1.4387,-1.4405,-1.4403,-1.4411,-1.4419,-1.442,-1.4422,-1.4427,-1.4421,-1.4414,-1.4414,-1.4424,-1.4424,-1.4424,0,-1.4214,-1.4237,-1.425,-1.4258,-1.4283,-1.4289,-1.4299,-1.4317,-1.4326,-1.4341,-1.4348,-1.4364,-1.4373,-1.4386,-1.4402,-1.4404,-1.4418,-1.4424,-1.4425,-1.4425,-1.4427,-1.4427,-1.4421,-1.4432,-1.4432,-1.4432,-1.4432,0,-1.4212,-1.4221,-1.4245,-1.4253,-1.4263,-1.4281,-1.4291,-1.4303,-1.4318,-1.4328,-1.4343,-1.4352,-1.4373,-1.4385,-1.4398,-1.441,-1.4414,-1.4422,-1.4425,-1.442,-1.4419,-1.4426,-1.4426,-1.4433,-1.4433,-1.4433,-1.4433,0,-1.4201,-1.4217,-1.4232,-1.4254,-1.426,-1.4267,-1.4286,-1.4294,-1.4307,-1.4319,-1.4323,-1.4344,-1.4359,-1.4376,-1.4396,-1.4405,-1.4416,-1.4421,-1.441,-1.4412,-1.4412,-1.4412,-1.441,-1.4411,-1.4422,-1.4422,-1.4421,0,-1.4199,-1.4206,-1.4229,-1.4237,-1.4247,-1.4259,-1.4269,-1.4286,-1.4295,-1.4315,-1.4321,-1.4337,-1.435,-1.4373,-1.439,-1.4405,-1.4411,-1.4409,-1.4413,-1.4408,-1.441,-1.441,-1.441,-1.4408,-1.4408,-1.4407,-1.4407,0,-1.4194,-1.4201,-1.4214,-1.4229,-1.424,-1.4253,-1.4267,-1.4273,-1.4293,-1.4303,-1.4317,-1.4328,-1.4348,-1.4364,-1.4381,-1.4393,-1.4403,-1.4406,-1.4407,-1.4402,-1.4395,-1.4399,-1.4407,-1.4406,-1.4406,-1.4406,-1.4406,-1.4406,-1.4187,-1.4194,-1.4211,-1.4224,-1.4236,-1.4249,-1.4257,-1.4271,-1.4283,-1.4301,-1.4311,-1.4325,-1.4342,-1.4367,-1.4378,-1.439,-1.4393,-1.4395,-1.4395,-1.4395,-1.4394,-1.4393,-1.4393,-1.4393,-1.4393,-1.4393,-1.4393,0,-1.4182,-1.4193,-1.4206,-1.4224,-1.4235,-1.4243,-1.4259,-1.4267,-1.428,-1.4294,-1.4307,-1.4324,-1.4339,-1.4356,-1.4372,-1.4378,-1.4384,-1.4382,-1.4382,-1.4384,-1.439,-1.4387,-1.4378,-1.4378,-1.4378,-1.4378,-1.4378,-1.4378,-1.4181,-1.4193,-1.4202,-1.422,-1.4231,-1.4245,-1.4253,-1.4265,-1.4276,-1.4294,-1.4307,-1.4318,-1.4334,-1.4351,-1.4365,-1.4369,-1.4375,-1.4371,-1.4378,-1.4382,-1.4384,-1.4385,-1.4383,-1.4372,-1.4372,-1.4371,-1.4371,-1.4371]},{"header":{"parameterUnit":"m.s-1","parameterCategory":1,"la1":30.2991,"la2":30.254,"lo1":-89.0895,"lo2":-89.0444,"dy":0.0017,"dx":0.0017,"nx":28,"ny":28,"refTime":"2025-11-24T09:00:00:Z","depth":0,"parameterNumber":3,"parameterNumberName":"V-component_of_WINDS"},"data":[0,0,0,0,0,0,0,0,0,0,0,0,0,0,0,0,0,0,0,0,0,0,0,0,0,0,0,0,0,0,0,0,0,0,0,0,0,0,0,0,0,0,0,0,0,0,0,0,0,0,0,0,0,0,0,0,0,0,3.9021,3.9023,0,3.9166,3.9168,3.9169,3.9205,3.9204,3.9203,3.9202,3.9353,3.9358,3.9363,0,0,0,0,0,0,0,0,0,0,0,0,0,3.8779,3.8784,3.9021,3.9023,3.9025,3.9166,3.9168,3.917,3.9205,3.9204,3.9203,3.9202,3.9352,3.9357,3.9363,0,0,0,0,0,0,0,0,0,0,0,0,0,3.89,3.8785,3.9021,3.9059,3.9064,3.9165,3.9168,3.917,3.9206,3.9204,3.9203,3.9201,3.935,3.9357,3.9364,3.9438,0,0,3.9387,3.939,0,0,0,0,0,0,0,0,3.8893,3.8909,3.9052,3.9057,3.9063,3.9166,3.9138,3.926,3.9206,3.9152,3.9202,3.9201,3.9292,3.9304,3.9335,3.9445,3.9451,3.9387,3.9392,3.9395,3.9397,0,0,0,0,0,0,0,3.8885,3.8903,3.9078,3.9054,3.9061,3.9071,3.9087,3.9161,3.9228,3.9157,3.916,3.9176,3.9295,3.9327,3.9338,3.9454,3.9387,3.9394,3.9398,3.9401,3.9636,3.9638,0,0,0,0,0,0,3.8869,3.8896,3.9074,3.9083,3.8973,3.9076,3.9094,3.9134,3.9228,3.924,3.9177,3.9177,3.9316,3.933,3.9344,3.9439,3.9395,3.9402,3.9406,3.9634,3.9636,3.9638,0,0,0,0,0,0,3.8864,3.8885,3.9068,3.899,3.9014,3.9082,3.9127,3.9138,3.917,3.9243,3.9256,3.9198,3.9315,3.9334,3.9415,3.9445,3.9405,3.9412,3.9632,3.9635,3.9637,3.9629,0,0,0,0,0,0,3.8857,3.8883,3.891,3.8991,3.9018,3.9135,3.9129,3.9142,3.9183,3.9184,3.9266,3.9278,3.9315,3.9404,3.9422,3.9454,3.9417,3.963,3.9633,3.9637,3.9627,3.9631,3.9634,0,0,0,0,0,3.8848,3.8902,3.8911,3.8933,3.9054,3.9137,3.9153,3.9194,3.9185,3.9214,3.9262,3.9275,3.9438,3.9412,3.9433,3.9468,3.9628,3.9632,3.9636,3.9625,3.963,3.9634,0,0,0,0,0,0,3.8823,3.8913,3.8925,3.9005,3.9063,3.9143,3.918,3.9197,3.926,3.9258,3.9308,3.9326,3.9405,3.9444,3.9413,3.9546,3.9533,3.9542,3.9517,3.9523,3.9527,3.9516,3.9423,0,0,0,0,0,3.8827,3.8885,3.8961,3.9025,3.9053,3.9112,3.9149,3.9176,3.9239,3.9264,3.9317,3.9377,3.9443,3.9485,3.9549,3.9632,3.9653,3.9667,3.9671,3.9673,3.9681,3.9732,3.974,3.9652,3.9652,3.9652,0,0,3.8835,3.8891,3.8925,3.9021,3.9069,3.9131,3.9132,3.9196,3.9243,3.9274,3.9354,3.9396,3.9467,3.9551,3.959,3.9586,3.971,3.9679,3.968,3.9686,3.9737,3.9745,3.9753,3.9655,3.9654,3.9654,0,0,3.8882,3.893,3.899,3.9038,3.9111,3.915,3.9165,3.9242,3.9271,3.9353,3.9378,3.9435,3.9545,3.9597,3.9637,3.9707,3.9723,3.9726,3.9747,3.9796,3.9803,3.981,3.9838,3.9847,3.9733,3.9733,3.9733,0,3.8884,3.8977,3.9019,3.9083,3.9126,3.9156,3.9219,3.9264,3.9354,3.9384,3.9378,3.9519,3.9569,3.9667,3.9685,3.9715,3.9736,3.9718,3.9798,3.9805,3.9812,3.984,3.985,3.9733,3.9733,3.9733,3.9733,0,3.8977,3.9041,3.9081,3.9168,3.9215,3.9278,3.9331,3.9374,3.9398,3.9438,3.9523,3.9584,3.9663,3.9688,3.9711,3.979,3.9786,3.9788,3.9777,3.982,3.9847,3.9857,3.9733,3.9733,3.9733,3.9733,0,0,3.9011,3.9122,3.9137,3.9178,3.9262,3.9313,3.9379,3.9455,3.9493,3.9554,3.9613,3.9707,3.9711,3.9757,3.9786,3.9829,3.9885,3.9827,3.9829,3.9838,3.998,3.998,3.9991,3.9896,3.9898,3.99,3.9975,0,3.9071,3.9189,3.923,3.9328,3.9389,3.942,3.9478,3.9537,3.9577,3.9637,3.9681,3.9749,3.9747,3.9775,3.9819,3.9868,3.9914,3.9863,3.9953,3.9956,3.9936,4.0004,4.0003,4.0071,3.9986,3.9988,3.9989,0,3.9156,3.922,3.9324,3.9403,3.9431,3.9482,3.9557,3.9612,3.9681,3.9708,3.976,3.9787,3.986,3.9844,3.9946,3.9911,3.995,3.9981,3.9984,3.9996,3.9976,4.002,4.0094,4.0105,4.0005,4.0004,4.0003,0,3.9175,3.9286,3.9364,3.9398,3.9491,3.9527,3.9568,3.9635,3.968,3.9746,3.9776,3.985,3.9891,3.9949,3.9996,3.9979,4.0096,4.0083,4.0123,4.0122,4.0147,4.0145,4.0231,4.0168,4.0168,4.0168,4.0168,0,3.9239,3.9302,3.9374,3.9422,3.9495,3.9542,3.9614,3.9657,3.9717,3.9775,3.9806,3.9861,3.9919,3.9983,4.002,4.0102,4.0119,4.0145,4.0155,4.0144,4.0141,4.0171,4.0169,4.0171,4.017,4.017,4.0169,0,3.9272,3.9323,3.941,3.9492,3.9514,3.9564,3.9636,3.9685,3.9726,3.9801,3.9821,3.9887,3.9964,4.0017,4.0114,4.014,4.0229,4.0237,4.0206,4.0211,4.025,4.0246,4.036,4.0378,4.0301,4.0301,4.0302,0,3.931,3.936,3.9448,3.9489,3.953,3.9595,3.9642,3.9691,3.9738,3.9822,3.9862,3.994,4.0005,4.0127,4.0185,4.0261,4.0273,4.0307,4.0284,4.0273,4.0277,4.0274,4.0281,4.0311,4.0312,4.0312,4.0313,0,3.9374,3.9397,3.9462,3.9536,3.959,3.9651,3.9713,3.9745,3.9806,3.9858,3.9936,3.9987,4.0088,4.0166,4.0248,4.0293,4.0315,4.0319,4.0333,4.0323,4.0305,4.0319,4.0218,4.0317,4.0316,4.0316,4.0316,4.0316,3.9413,3.946,3.953,3.9602,3.9653,3.9711,3.9762,3.9811,3.9876,3.9962,3.9988,4.007,4.0141,4.0254,4.03,4.0367,4.0364,4.0383,4.0389,4.0394,4.0395,4.0292,4.0381,4.0381,4.0381,4.0381,4.0381,0,3.9481,3.9528,3.9593,3.9679,3.9736,3.975,3.982,3.9868,3.9939,4.0003,4.0067,4.0159,4.0237,4.0302,4.0382,4.0424,4.0436,4.0444,4.0442,4.0453,4.0391,4.0372,4.0433,4.0433,4.0433,4.0433,4.0433,4.0433,3.9523,3.9604,3.9636,3.9744,3.9791,3.9872,3.9911,3.9965,4.0017,4.0118,4.0182,4.0224,4.0289,4.0376,4.0448,4.0466,4.0495,4.0501,4.0521,4.0463,4.0457,4.0451,4.0434,4.0507,4.0507,4.0579,4.0579,4.058]}]]